Regional Weather Roundup
Issued by NWS

Home | Current Version | Previous Version | Text Only | Print | Product List | Glossary Off
Versions: 1 2 3 4 5 6 7 8 9 10 11 12 13 14 15 16 17 18 19 20 21 22 23 24 25 26 27 28 29 30 31 32 33 34 35 36 37 38 39 40 41 42 43 44 45 46 47 48 49 50

000
ASUS43 KIND 230309
RWRIN

WEATHER ROUNDUP FOR INDIANA
NATIONAL WEATHER SERVICE INDIANAPOLIS IN
1100 PM EDT WED MAR 22 2017

NOTE: "FAIR" INDICATES FEW OR NO CLOUDS BELOW 12,000 FEET WITH NO
SIGNIFICANT WEATHER AND/OR OBSTRUCTIONS TO VISIBILITY.

* - STATION DOES NOT REPORT WEATHER SUCH AS PRECIPITATION OR FOG.

+ - STATION NOT QUALITY CONTROLLED BY THE NATIONAL WEATHER SERVICE.
    USE DATA WITH CAUTION...ESPECIALLY DEWPOINT AND RELATIVE
    HUMIDITY OBSERVATIONS.

INZ001>003-010>013-019-020-230400-
NORTHWEST INDIANA

CITY           SKY/WX    TMP DP  RH WIND       PRES   REMARKS
GARY /AIRPORT/ MOCLDY    32  23  69 E8        30.50F WCI  25
KNOX *+        PTCLDY    30  -4  22 E5        30.49S WCI  25
LA PORTE +     PTCLDY    28  20  72 NE5       30.50S WCI  23
MICHIGAN CITY+ CLOUDY    28  21  74 CALM      30.50F
MONTICELLO +   CLOUDY    32  19  60 E5        30.48F WCI  27
RENSSELAER +     N/A     32  19  59 E8        30.48F WCI  25
VALPARAISO     CLEAR     28  22  78 NE3       30.49S

$$

LMZ046-743>745-230400-
SOUTHERN LAKE MICHIGAN

STATION/POSITION TIME  TEMP    WIND        PRES    WAVE
                       AIR SEA DIR/SP/G            HT
                 (UTC) (F)     (DEG/KT/KT) (MB)    (FT)
BURNS HARBOR     0240   31      90/  8/  9 1032.8F
MICHIGAN CITY    0240   30      60/  9/ 10   N/A

$$

INZ004-005-014>016-021>024-230400-
NORTH CENTRAL INDIANA

CITY           SKY/WX    TMP DP  RH WIND       PRES   REMARKS
GOSHEN         PTCLDY    29  15  56 SE6       30.50S WCI  23
LOGANSPORT +   PTCLDY    30  21  69 E7        30.50S WCI  23
PERU/GRISSOM   MOCLDY    31  19  61 E8        30.47S WCI  23
ROCHESTER +    PTCLDY    34  19  55 E6        30.50S WCI  29
SOUTH BEND     CLEAR     25  17  72 CALM      30.50S
WARSAW +       PTCLDY    30  18  59 SE3       30.50S

$$

INZ006>009-017-018-025>027-230400-
NORTHEAST INDIANA

CITY           SKY/WX    TMP DP  RH WIND       PRES   REMARKS
ANGOLA *+      CLEAR     28  18  64 SE5       30.49S WCI  23
AUBURN +       CLOUDY    30  16  55 SE3       30.52S
FORT WAYNE     CLOUDY    30  18  60 E7        30.51S WCI  23
HUNTINGTON +   CLOUDY    29  19  64 E6        30.51S WCI  23
KENDALLVILLE + PTCLDY    27  16  62 SE6       30.49F WCI  21

$$

INZ028-029-035-036-043>045-051>053-230400-
WEST CENTRAL INDIANA

CITY           SKY/WX    TMP DP  RH WIND       PRES   REMARKS
CRAWFORDSVL +  CLOUDY    30  22  72 E7        30.48R WCI  23
GREENCASTLE +  CLOUDY    32  19  59 E6        30.47R WCI  26
LAFAYETTE      CLEAR     28  19  69 E8        30.49R WCI  20
TERRE HAUTE    CLEAR     30  21  69 E7        30.46S WCI  23

$$

INZ030>032-037>040-046>048-054>057-064-065-230400-
CENTRAL INDIANA

CITY           SKY/WX    TMP DP  RH WIND       PRES   REMARKS
CP ATTERBURY + CLEAR     32  23  69 E8        30.48S WCI  25
FRANKFORT +    CLEAR     33  24  71 E6        30.50R WCI  27
GREENWOOD *+   CLEAR     32  22  66 E6        30.47S WCI  27
INDIANAPOLIS   PTCLDY    34  20  56 E10       30.47R WCI  26
-EAGLE CREEK   CLEAR     33  19  56 E8        30.47R WCI  26
KOKOMO +       CLOUDY    30  24  78 E7        30.50R WCI  23
MARION +       CLOUDY    31  20  65 E6        30.50S WCI  25
MT COMFORT *+  CLEAR     28  23  80 E5        30.47F WCI  23
SHELBYVILLE    CLEAR     32  22  66 E8        30.47S WCI  25
ZIONSVILLE +   CLEAR     31  21  67 E7        30.48S WCI  24

$$

INZ033-034-041-042-049-050-058-059-230400-
EAST CENTRAL INDIANA

CITY           SKY/WX    TMP DP  RH WIND       PRES   REMARKS
MUNCIE         CLEAR     31  22  69 E8        30.49R WCI  23
RICHMOND +     CLEAR     28  21  74 E10       30.47S WCI  19

$$

INZ060-061-067>069-081>083-085>088-230400-
SOUTHWEST INDIANA

CITY           SKY/WX    TMP DP  RH WIND       PRES   REMARKS
EVANSVILLE     CLEAR     40  20  44 NE9       30.42R
HUNTINGBURG *+ CLEAR     38  20  48 NE8       30.43S
WASHINGTON +   CLEAR     37  20  51 MISG      30.44F

$$

INZ062-063-066-070>080-084-089>092-230400-
SOUTH CENTRAL AND SOUTHEAST INDIANA

CITY           SKY/WX    TMP DP  RH WIND       PRES   REMARKS
BEDFORD +      CLEAR     34  19  55 NE6       30.44R WCI  29
BLOOMINGTON    CLEAR     35  17  47 E8        30.45R WCI  29
MADISON *+     CLEAR     34  19  55 E8        30.48R WCI  27
NORTH VERNON + CLEAR     34  21  60 NE5       30.47R WCI  30
SEYMOUR +      CLEAR     32  23  69 NE6       30.46S WCI  26

$$





USA.gov is the U.S. government's official web portal to all federal, state and local government web resources and services.